Terug naar catalogus

STARLINK-32457

ActiefCommunicatieVLEO
NORAD 61717·PAYLOAD·🇺🇸 United States

Gelanceerd Oct 30, 2024 vanaf Cape Canaveral Space Force Station

Loading…

Volgende Passages (komende 24 uur)

TLE

VersSource: CelesTrak SupGP

Epoch: Sep 15, 2026, 03:25 UTC

1 61717C 24196L   26258.14284722  .00014194  00000+0  41922-3 0  2584
2 61717  53.1593 298.8567 0001044  76.6460  74.5325 15.34394357    14

Volg STARLINK-32457 in realtime met AllMySat

Download on the App Store